Location: Powder Track
(41.8531°N, 72.3584°W)
Time: 00:58:44
(UTC+00:00)

Vanguard 1 Rocket - Pass Details

Date: 08 August 2021
Orbit: 650 x 4226 km, 34.3° (Epoch: 16 September)

Event Time Altitude Azimuth Distance (km) Brightness Sun altitude
Rises 12:29:05 0° 232° (SW) 8,386 11.9 28.0°
Reaches altitude 10° 12:35:06 10° 228° (SW) 7,425 11.7 29.1°
Maximum altitude 12:59:28 55° 160° (SSE) 3,994 11.4 33.6°
Drops below altitude 10° 13:15:08 10° 88° (E) 5,046 12.4 36.5°
Sets 13:18:17 0° 84° (E) 5,673 12.3 37.0°
